,,Stat6,,Stat2,,Stat8,,Stat9,,Stat10,,Wind1,,Wind1,
time,status,PA1M_AVG,status,PR1M_SUM,status,RH1M_AVG,status,SR1M_AVG,status,TA1M_AVG,status,W1dAve1m,status,W1sAve1m,
2008-05-10, 00:00:00,VALID,917.81,VALID,0,VALID,100,VALID,-0.0679233,VALID,20.4177,VALID,28,VALID,1.0846,
2008-05-10, 00:01:00,VALID,917.831,VALID,0,VALID,100,VALID,-0.118866,VALID,20.4242,VALID,11,VALID,0.783346,
2008-05-10, 00:02:00,VALID,917.837,VALID,0,VALID,100,VALID,-0.101885,VALID,20.4205,VALID,39,VALID,1.38502,
2008-05-10, 00:03:00,VALID,917.849,VALID,0,VALID,100,VALID,-0.0679233,VALID,20.4267,VALID,14,VALID,1.16297,
2008-05-10, 00:04:00,VALID,917.832,VALID,0,VALID,100,VALID,-0.0679233,VALID,20.4202,VALID,26,VALID,1.91051,
2008-05-10, 00:05:00,VALID,917.825,VALID,0,VALID,100,VALID,-0.0849042,VALID,20.3983,VALID,19,VALID,2.18045,
2008-05-10, 00:06:00,VALID,917.824,VALID,0,VALID,100,VALID,-0.0849042,VALID,20.3788,VALID,1,VALID,1.15062,
2008-05-10, 00:07:00,VALID,917.807,VALID,0,VALID,100,VALID,-0.101885,VALID,20.352,VALID,11,VALID,1.52753,
2008-05-10, 00:08:00,VALID,917.789,VALID,0,VALID,100,VALID,-0.0679233,VALID,20.3204,VALID,11,VALID,1.54634,
2008-05-10, 00:09:00,VALID,917.788,VALID,0,VALID,100,VALID,-0.0339617,VALID,20.2587,VALID,20,VALID,1.43192,
2008-05-10, 00:10:00,VALID,917.781,VALID,0,VALID,100,VALID,-0.0509425,VALID,20.2552,VALID,39,VALID,1.57679,
2008-05-10, 00:11:00,VALID,917.777,VALID,0,VALID,100,VALID,-0.0679233,VALID,20.223,VALID,34,VALID,1.40642,
2008-05-10, 00:12:00,VALID,917.776,VALID,0,VALID,100,VALID,-0.0509425,VALID,20.1746,VALID,22,VALID,0.193677,
2008-05-10, 00:13:00,VALID,917.78,VALID,0,VALID,100,VALID,-0.0509425,VALID,20.1846,VALID,22,VALID,0,
2008-05-10, 00:14:00,VALID,917.764,VALID,0,VALID,100,VALID,-0.0849042,VALID,20.1938,VALID,28,VALID,0,
2008-05-10, 00:15:00,VALID,917.767,VALID,0,VALID,100,VALID,-0.0169808,VALID,20.2065,VALID,29,VALID,0,
2008-05-10, 00:16:00,VALID,917.769,VALID,0,VALID,100,VALID,-0.0169808,VALID,20.2292,VALID,29,VALID,0,
2008-05-10, 00:17:00,VALID,917.741,VALID,0,VALID,100,VALID,-0.0849042,VALID,20.2427,VALID,29,VALID,0,
2008-05-10, 00:18:00,VALID,917.704,VALID,0,VALID,100,VALID,-0.0849042,VALID,20.2882,VALID,29,VALID,0,
2008-05-10, 00:19:00,VALID,917.68,VALID,0,VALID,100,VALID,-0.101885,VALID,20.3009,VALID,27,VALID,0,
2008-05-10, 00:20:00,VALID,917.656,VALID,0,VALID,100,VALID,-0.101885,VALID,20.3403,VALID,24,VALID,0,
2008-05-10, 00:21:00,VALID,917.645,VALID,0,VALID,100,VALID,-0.0509425,VALID,20.3688,VALID,36,VALID,0,
2008-05-10, 00:22:00,VALID,917.63,VALID,0,VALID,100,VALID,-0.0509425,VALID,20.379,VALID,37,VALID,0.0262784,
2008-05-10, 00:23:00,VALID,917.628,VALID,0,VALID,100,VALID,0.0339617,VALID,20.3742,VALID,31,VALID,1.12957,
2008-05-10, 00:24:00,VALID,917.621,VALID,0,VALID,100,VALID,0,VALID,20.3578,VALID,21,VALID,1.12773,
2008-05-10, 00:25:00,VALID,917.601,VALID,0,VALID,100,VALID,0.0679233,VALID,20.3572,VALID,30,VALID,1.05678,
2008-05-10, 00:26:00,VALID,917.589,VALID,0,VALID,100,VALID,0.0509425,VALID,20.3707,VALID,12,VALID,0.903587,
2008-05-10, 00:27:00,VALID,917.538,VALID,0,VALID,100,VALID,0.0509425,VALID,20.3742,VALID,20,VALID,0.831854,
2008-05-10, 00:28:00,VALID,917.498,VALID,0,VALID,100,VALID,0.0169808,VALID,20.384,VALID,35,VALID,0.965774,
2008-05-10, 00:29:00,VALID,917.461,VALID,0,VALID,100,VALID,0.0339617,VALID,20.3999,VALID,22,VALID,0.467297,
2008-05-10, 00:30:00,VALID,917.421,VALID,0,VALID,100,VALID,0.0509425,VALID,20.3805,VALID,23,VALID,0.83724,
2008-05-10, 00:31:00,VALID,917.388,VALID,0,VALID,100,VALID,0.0169808,VALID,20.3613,VALID,27,VALID,0.961119,
2008-05-10, 00:32:00,VALID,917.373,VALID,0,VALID,100,VALID,0.0339617,VALID,20.3578,VALID,27,VALID,0.831214,
2008-05-10, 00:33:00,VALID,917.338,VALID,0,VALID,100,VALID,0.0339617,VALID,20.3515,VALID,28,VALID,0.951823,
2008-05-10, 00:34:00,VALID,917.307,VALID,0,VALID,100,VALID,0.0509425,VALID,20.3283,VALID,42,VALID,1.23651,
2008-05-10, 00:35:00,VALID,917.288,VALID,0,VALID,100,VALID,0.0169808,VALID,20.2736,VALID,40,VALID,1.88808,
2008-05-10, 00:36:00,VALID,917.282,VALID,0,VALID,100,VALID,0.0169808,VALID,20.2509,VALID,49,VALID,1.39158,
2008-05-10, 00:37:00,VALID,917.283,VALID,0,VALID,100,VALID,0,VALID,20.2439,VALID,49,VALID,0.861281,
2008-05-10, 00:38:00,VALID,917.259,VALID,0,VALID,100,VALID,-0.101885,VALID,20.2168,VALID,38,VALID,0.424924,
2008-05-10, 00:39:00,VALID,917.248,VALID,0,VALID,100,VALID,-0.0849042,VALID,20.1935,VALID,57,VALID,0.324963,
2008-05-10, 00:40:00,VALID,917.244,VALID,0,VALID,100,VALID,-0.0509425,VALID,20.1876,VALID,13,VALID,0.0394097,
2008-05-10, 00:41:00,VALID,917.236,VALID,0,VALID,100,VALID,-0.0679233,VALID,20.1778,VALID,346,VALID,0,
2008-05-10, 00:42:00,VALID,917.22,VALID,0,VALID,100,VALID,-0.0679233,VALID,20.1808,VALID,338,VALID,0,
2008-05-10, 00:43:00,VALID,917.215,VALID,0,VALID,100,VALID,-0.0679233,VALID,20.1811,VALID,331,VALID,0,
2008-05-10, 00:44:00,VALID,917.228,VALID,0,VALID,100,VALID,-0.101885,VALID,20.1743,VALID,331,VALID,0,
2008-05-10, 00:45:00,VALID,917.227,VALID,0,VALID,100,VALID,-0.101885,VALID,20.1651,INVALID,360,VALID,0,
2008-05-10, 00:46:00,VALID,917.243,VALID,0,VALID,100,VALID,-0.0679233,VALID,20.1519,VALID,342,VALID,0,
2008-05-10, 00:47:00,VALID,917.239,VALID,0,VALID,100,VALID,-0.101885,VALID,20.1291,VALID,3,VALID,0,
2008-05-10, 00:48:00,VALID,917.245,VALID,0,VALID,100,VALID,-0.0849042,VALID,20.1324,VALID,14,VALID,0,
2008-05-10, 00:49:00,VALID,917.242,VALID,0,VALID,100,VALID,-0.0679233,VALID,20.1356,VALID,7,VALID,0,
2008-05-10, 00:50:00,VALID,917.231,VALID,0,VALID,100,VALID,-0.101885,VALID,20.1097,VALID,8,VALID,0,
2008-05-10, 00:51:00,VALID,917.224,VALID,0,VALID,100,VALID,-0.0849042,VALID,20.1062,VALID,8,VALID,0,
2008-05-10, 00:52:00,VALID,917.194,VALID,0,VALID,100,VALID,-0.101885,VALID,20.1324,VALID,6,VALID,0,
2008-05-10, 00:53:00,VALID,917.191,VALID,0,VALID,100,VALID,-0.101885,VALID,20.1291,VALID,342,VALID,0,
2008-05-10, 00:54:00,VALID,917.179,VALID,0,VALID,100,VALID,-0.0679233,VALID,20.1259,VALID,346,VALID,0,
2008-05-10, 00:55:00,VALID,917.159,VALID,0,VALID,100,VALID,-0.0849042,VALID,20.1486,VALID,358,VALID,0,
2008-05-10, 00:56:00,VALID,917.187,VALID,0,VALID,100,VALID,-0.0679233,VALID,20.1646,VALID,4,VALID,0,
2008-05-10, 00:57:00,VALID,917.218,VALID,0,VALID,100,VALID,-0.0849042,VALID,20.1973,VALID,5,VALID,0,
2008-05-10, 00:58:00,VALID,917.225,VALID,0,VALID,100,VALID,-0.0849042,VALID,20.2133,VALID,5,VALID,0,
2008-05-10, 00:59:00,VALID,917.237,VALID,0,VALID,100,VALID,-0.0509425,VALID,20.22,VALID,5,VALID,0,
2008-05-10, 01:00:00,VALID,917.247,VALID,0,VALID,100,VALID,-0.0339617,VALID,20.236,VALID,5,VALID,0,
2008-05-10, 01:01:00,VALID,917.228,VALID,0,VALID,100,VALID,-0.101885,VALID,20.236,VALID,12,VALID,0,
2008-05-10, 01:02:00,VALID,917.219,VALID,0,VALID,100,VALID,-0.0849042,VALID,20.2495,VALID,28,VALID,0.0411932,
2008-05-10, 01:03:00,VALID,917.231,VALID,0,VALID,100,VALID,-0.0169808,VALID,20.2355,VALID,333,VALID,0.386186,
2008-05-10, 01:04:00,VALID,917.242,VALID,0,VALID,100,VALID,-0.0849042,VALID,20.249,VALID,12,VALID,0.0790334,
2008-05-10, 01:05:00,VALID,917.241,VALID,0,VALID,100,VALID,-0.0679233,VALID,20.2684,VALID,16,VALID,0,
2008-05-10, 01:06:00,VALID,917.245,VALID,0,VALID,100,VALID,-0.0339617,VALID,20.2714,VALID,9,VALID,0,
2008-05-10, 01:07:00,VALID,917.245,VALID,0,VALID,100,VALID,-0.0679233,VALID,20.2744,VALID,242,VALID,0,
2008-05-10, 01:08:00,VALID,917.259,VALID,0,VALID,100,VALID,-0.0169808,VALID,20.2874,VALID,242,VALID,0,
2008-05-10, 01:09:00,VALID,917.286,VALID,0,VALID,100,VALID,-0.0679233,VALID,20.2874,VALID,242,VALID,0,
2008-05-10, 01:10:00,VALID,917.306,VALID,0,VALID,100,VALID,-0.0339617,VALID,20.2752,VALID,242,VALID,0.0642149,
2008-05-10, 01:11:00,VALID,917.317,VALID,0,VALID,100,VALID,-0.0339617,VALID,20.2574,VALID,343,VALID,0.445513,
2008-05-10, 01:12:00,VALID,917.291,VALID,0,VALID,100,VALID,0,VALID,20.2449,VALID,29,VALID,0.942042,
2008-05-10, 01:13:00,VALID,917.249,VALID,0,VALID,100,VALID,-0.0679233,VALID,20.2482,VALID,47,VALID,1.38317,
2008-05-10, 01:14:00,VALID,917.226,VALID,0,VALID,100,VALID,-0.0339617,VALID,20.2544,VALID,42,VALID,1.27038,
2008-05-10, 01:15:00,VALID,917.192,VALID,0,VALID,100,VALID,-0.0339617,VALID,20.2712,VALID,22,VALID,0.636914,
2008-05-10, 01:16:00,VALID,917.165,VALID,0,VALID,100,VALID,-0.0339617,VALID,20.2812,VALID,36,VALID,0.00177557,
2008-05-10, 01:17:00,VALID,917.147,VALID,0,VALID,100,VALID,0,VALID,20.2744,VALID,31,VALID,0,
2008-05-10, 01:18:00,VALID,917.126,VALID,0,VALID,100,VALID,-0.0169808,VALID,20.2709,VALID,31,VALID,0,
2008-05-10, 01:19:00,VALID,917.119,VALID,0,VALID,100,VALID,0,VALID,20.2809,VALID,31,VALID,0,
2008-05-10, 01:20:00,VALID,917.1,VALID,0,VALID,100,VALID,-0.0169808,VALID,20.2609,VALID,31,VALID,0.0259811,
2008-05-10, 01:21:00,VALID,917.092,VALID,0,VALID,100,VALID,-0.0339617,VALID,20.2514,VALID,38,VALID,0.696221,
2008-05-10, 01:22:00,VALID,917.109,VALID,0,VALID,100,VALID,-0.0679233,VALID,20.2325,VALID,16,VALID,0.657522,
2008-05-10, 01:23:00,VALID,917.113,VALID,0,VALID,100,VALID,-0.0169808,VALID,20.226,VALID,17,VALID,0.00225694,
2008-05-10, 01:24:00,VALID,917.119,VALID,0,VALID,100,VALID,-0.0509425,VALID,20.219,VALID,17,VALID,0,
2008-05-10, 01:25:00,VALID,917.084,VALID,0,VALID,100,VALID,-0.0339617,VALID,20.2125,VALID,23,VALID,0,
2008-05-10, 01:26:00,VALID,917.082,VALID,0,VALID,100,VALID,-0.0509425,VALID,20.2003,VALID,29,VALID,0,
2008-05-10, 01:27:00,VALID,917.065,VALID,0,VALID,100,VALID,-0.101885,VALID,20.1868,VALID,25,VALID,0,
2008-05-10, 01:28:00,VALID,917.081,VALID,0,VALID,100,VALID,-0.0679233,VALID,20.1543,VALID,25,VALID,0,
2008-05-10, 01:29:00,VALID,917.07,VALID,0,VALID,100,VALID,-0.0509425,VALID,20.1449,VALID,26,VALID,0,
2008-05-10, 01:30:00,VALID,917.077,VALID,0,VALID,100,VALID,-0.0679233,VALID,20.1451,VALID,26,VALID,0,
2008-05-10, 01:31:00,VALID,917.064,VALID,0,VALID,100,VALID,-0.0509425,VALID,20.1384,VALID,26,VALID,0,
2008-05-10, 01:32:00,VALID,917.024,VALID,0,VALID,100,VALID,-0.0509425,VALID,20.1286,VALID,26,VALID,0,
2008-05-10, 01:33:00,VALID,917.001,VALID,0,VALID,100,VALID,-0.0509425,VALID,20.1349,VALID,26,VALID,0,
2008-05-10, 01:34:00,VALID,916.972,VALID,0,VALID,100,VALID,-0.0509425,VALID,20.1087,VALID,25,VALID,0,
2008-05-10, 01:35:00,VALID,916.932,VALID,0,VALID,100,VALID,-0.0509425,VALID,20.0932,VALID,23,VALID,0,
2008-05-10, 01:36:00,VALID,916.915,VALID,0,VALID,100,VALID,-0.0679233,VALID,20.0607,VALID,29,VALID,0,
2008-05-10, 01:37:00,VALID,916.913,VALID,0,VALID,100,VALID,0,VALID,20.028,VALID,22,VALID,0,
2008-05-10, 01:38:00,VALID,916.923,VALID,0,VALID,100,VALID,0,VALID,19.9851,VALID,21,VALID,0,
2008-05-10, 01:39:00,VALID,916.922,VALID,0,VALID,100,VALID,-0.0849042,VALID,19.9921,VALID,21,VALID,0,
2008-05-10, 01:40:00,VALID,916.902,VALID,0,VALID,100,VALID,-0.0509425,VALID,20.0023,VALID,1,VALID,0,
2008-05-10, 01:41:00,VALID,916.901,VALID,0,VALID,100,VALID,-0.0169808,VALID,20.0086,VALID,308,VALID,0,
2008-05-10, 01:42:00,VALID,916.907,VALID,0,VALID,100,VALID,-0.0169808,VALID,20.0315,VALID,308,VALID,0,
2008-05-10, 01:43:01,VALID,916.914,VALID,0,VALID,100,VALID,-0.0169808,VALID,20.0375,VALID,8,VALID,0,
2008-05-10, 01:44:00,VALID,916.932,VALID,0,VALID,100,VALID,-0.0339617,VALID,20.0313,VALID,18,VALID,0,
2008-05-10, 01:45:00,VALID,916.943,VALID,0,VALID,100,VALID,-0.0679233,VALID,20.0116,VALID,6,VALID,0,
2008-05-10, 01:46:00,VALID,916.953,VALID,0,VALID,100,VALID,-0.0339617,VALID,19.9953,VALID,13,VALID,0,
2008-05-10, 01:47:00,VALID,916.949,VALID,0,VALID,100,VALID,-0.0509425,VALID,19.9993,VALID,18,VALID,0,
2008-05-10, 01:48:00,VALID,916.946,VALID,0,VALID,100,VALID,-0.0679233,VALID,19.9928,VALID,38,VALID,0,
2008-05-10, 01:49:00,VALID,916.944,VALID,0,VALID,100,VALID,-0.0679233,VALID,19.9899,VALID,33,VALID,0,
2008-05-10, 01:50:00,VALID,916.921,VALID,0,VALID,100,VALID,-0.0339617,VALID,19.9734,VALID,21,VALID,0,
2008-05-10, 01:51:00,VALID,916.9,VALID,0,VALID,100,VALID,-0.0679233,VALID,19.9699,VALID,16,VALID,0,
2008-05-10, 01:52:00,VALID,916.879,VALID,0,VALID,100,VALID,-0.0339617,VALID,19.9469,VALID,4,VALID,0,
2008-05-10, 01:53:00,VALID,916.83,VALID,0,VALID,100,VALID,0.0339617,VALID,19.9229,VALID,28,VALID,0,
2008-05-10, 01:54:00,VALID,916.814,VALID,0,VALID,100,VALID,0.0509425,VALID,19.8937,VALID,29,VALID,0,
2008-05-10, 01:55:00,VALID,916.783,VALID,0,VALID,100,VALID,0.0169808,VALID,19.9002,VALID,25,VALID,0,
2008-05-10, 01:56:00,VALID,916.742,VALID,0,VALID,100,VALID,0.0509425,VALID,19.9067,VALID,25,VALID,0,
2008-05-10, 01:57:01,VALID,916.713,VALID,0,VALID,100,VALID,0.0339617,VALID,19.8902,VALID,30,VALID,0,
2008-05-10, 01:58:01,VALID,916.682,VALID,0,VALID,100,VALID,0.0169808,VALID,19.8867,VALID,34,VALID,0,
2008-05-10, 01:59:01,VALID,916.679,VALID,0,VALID,100,VALID,-0.0169808,VALID,19.8872,VALID,21,VALID,0,
2008-05-10, 02:00:00,VALID,916.677,VALID,0,VALID,100,VALID,0.0509425,VALID,19.8902,VALID,14,VALID,0,
2008-05-10, 02:01:00,VALID,916.678,VALID,0,VALID,100,VALID,0.0169808,VALID,19.897,VALID,2,VALID,0,
2008-05-10, 02:02:00,VALID,916.687,VALID,0,VALID,100,VALID,0,VALID,19.8972,VALID,326,VALID,0.0539063,
2008-05-10, 02:03:00,VALID,916.687,VALID,0,VALID,100,VALID,-0.0169808,VALID,19.8975,VALID,320,VALID,0,
2008-05-10, 02:04:00,VALID,916.661,VALID,0,VALID,100,VALID,0.0169808,VALID,19.9037,VALID,335,VALID,0,
2008-05-10, 02:05:01,VALID,916.654,VALID,0,VALID,100,VALID,0,VALID,19.9132,VALID,9,VALID,0,
2008-05-10, 02:06:00,VALID,916.642,VALID,0,VALID,100,VALID,0,VALID,19.9167,VALID,34,VALID,0,
2008-05-10, 02:07:01,VALID,916.629,VALID,0,VALID,100,VALID,-0.0169808,VALID,19.9327,VALID,33,VALID,0,
2008-05-10, 02:08:01,VALID,916.6,VALID,0,VALID,100,VALID,0.0169808,VALID,19.9619,VALID,33,VALID,0,
2008-05-10, 02:09:00,VALID,916.576,VALID,0,VALID,100,VALID,0,VALID,19.9621,VALID,28,VALID,0,
2008-05-10, 02:10:00,VALID,916.555,VALID,0,VALID,100,VALID,0.0169808,VALID,19.9654,VALID,25,VALID,0,
2008-05-10, 02:11:01,VALID,916.522,VALID,0,VALID,100,VALID,0,VALID,19.9619,VALID,26,VALID,0,
2008-05-10, 02:12:00,VALID,916.484,VALID,0,VALID,100,VALID,0.0169808,VALID,19.9846,VALID,8,VALID,0.0525568,
2008-05-10, 02:13:01,VALID,916.438,VALID,0,VALID,100,VALID,0.0339617,VALID,19.9714,VALID,9,VALID,0.728561,
2008-05-10, 02:14:00,VALID,916.375,VALID,0,VALID,100,VALID,0,VALID,19.9422,VALID,16,VALID,1.60556,
2008-05-10, 02:15:00,VALID,916.336,VALID,0,VALID,100,VALID,0,VALID,19.9095,VALID,14,VALID,1.68121,
2008-05-10, 02:16:01,VALID,916.313,VALID,0,VALID,100,VALID,0.0169808,VALID,19.8905,VALID,16,VALID,1.29119,
2008-05-10, 02:17:01,VALID,916.282,VALID,0,VALID,100,VALID,0,VALID,19.884,VALID,19,VALID,1.4984,
2008-05-10, 02:18:00,VALID,916.262,VALID,0,VALID,100,VALID,0,VALID,19.8713,VALID,12,VALID,1.23605,
2008-05-10, 02:19:00,VALID,916.268,VALID,0,VALID,100,VALID,0,VALID,19.8543,VALID,359,VALID,1.13262,
2008-05-10, 02:20:01,VALID,916.261,VALID,0,VALID,100,VALID,0.0169808,VALID,19.8413,VALID,2,VALID,0.949479,
2008-05-10, 02:21:01,VALID,916.254,VALID,0,VALID,100,VALID,0.0339617,VALID,19.8483,VALID,339,VALID,0.343572,
2008-05-10, 02:22:00,VALID,916.256,VALID,0,VALID,100,VALID,0.0169808,VALID,19.8483,VALID,13,VALID,0.56871,
2008-05-10, 02:23:00,VALID,916.255,VALID,0,VALID,100,VALID,-0.0679233,VALID,19.8526,VALID,349,VALID,0.553735,
2008-05-10, 02:24:00,VALID,916.267,VALID,0,VALID,100,VALID,-0.0509425,VALID,19.8725,VALID,351,VALID,0.0145349,
2008-05-10, 02:25:00,VALID,916.275,VALID,0,VALID,100,VALID,-0.0849042,VALID,19.882,VALID,351,VALID,0,
2008-05-10, 02:26:01,VALID,916.258,VALID,0,VALID,100,VALID,-0.0849042,VALID,19.8885,VALID,351,VALID,0,
2008-05-10, 02:27:01,VALID,916.244,VALID,0,VALID,100,VALID,-0.0509425,VALID,19.9082,VALID,351,VALID,0,
2008-05-10, 02:28:01,VALID,916.242,VALID,0,VALID,100,VALID,-0.0849042,VALID,19.9075,VALID,8,VALID,0,
2008-05-10, 02:29:01,VALID,916.223,VALID,0,VALID,100,VALID,-0.101885,VALID,19.9209,VALID,28,VALID,0.0300781,
2008-05-10, 02:30:01,VALID,916.227,VALID,0,VALID,100,VALID,-0.0509425,VALID,19.9269,VALID,28,VALID,0,
2008-05-10, 02:31:00,VALID,916.209,VALID,0,VALID,100,VALID,-0.101885,VALID,19.9332,VALID,28,VALID,0,
2008-05-10, 02:32:01,VALID,916.201,VALID,0,VALID,100,VALID,-0.0679233,VALID,19.9566,VALID,28,VALID,0,
2008-05-10, 02:33:01,VALID,916.188,VALID,0,VALID,100,VALID,-0.101885,VALID,19.9694,VALID,28,VALID,0,
2008-05-10, 02:34:01,VALID,916.189,VALID,0,VALID,100,VALID,-0.0849042,VALID,19.9724,VALID,28,VALID,0,
2008-05-10, 02:35:01,VALID,916.192,VALID,0,VALID,100,VALID,-0.101885,VALID,19.9666,VALID,28,VALID,0,
2008-05-10, 02:36:01,VALID,916.2,VALID,0,VALID,100,VALID,-0.101885,VALID,19.9634,VALID,28,VALID,0,
2008-05-10, 02:37:01,VALID,916.227,VALID,0,VALID,100,VALID,-0.0849042,VALID,19.9531,VALID,28,VALID,0,
2008-05-10, 02:38:01,VALID,916.241,VALID,0,VALID,100,VALID,-0.0849042,VALID,19.9499,VALID,28,VALID,0,
2008-05-10, 02:39:00,VALID,916.261,VALID,0,VALID,100,VALID,-0.0849042,VALID,19.9432,VALID,28,VALID,0,
2008-05-10, 02:40:00,VALID,916.287,VALID,0,VALID,100,VALID,-0.0679233,VALID,19.9402,VALID,28,VALID,0,
2008-05-10, 02:41:00,VALID,916.296,VALID,0,VALID,100,VALID,-0.0679233,VALID,19.9332,VALID,28,VALID,0,
2008-05-10, 02:42:00,VALID,916.307,VALID,0,VALID,100,VALID,-0.0849042,VALID,19.9369,VALID,28,VALID,0,
2008-05-10, 02:43:00,VALID,916.325,VALID,0,VALID,100,VALID,-0.0509425,VALID,19.9269,VALID,28,VALID,0,
2008-05-10, 02:44:00,VALID,916.34,VALID,0,VALID,100,VALID,-0.0679233,VALID,19.9237,VALID,28,VALID,0,
2008-05-10, 02:45:00,VALID,916.357,VALID,0,VALID,100,VALID,-0.0679233,VALID,19.917,VALID,28,VALID,0,
2008-05-10, 02:46:00,VALID,916.36,VALID,0,VALID,100,VALID,-0.0339617,VALID,19.9207,VALID,28,VALID,0,
2008-05-10, 02:47:00,VALID,916.369,VALID,0,VALID,100,VALID,-0.0849042,VALID,19.9234,VALID,28,VALID,0,
2008-05-10, 02:48:00,VALID,916.378,VALID,0,VALID,100,VALID,-0.0849042,VALID,19.9202,VALID,28,VALID,0,
2008-05-10, 02:49:00,VALID,916.385,VALID,0,VALID,100,VALID,-0.0679233,VALID,19.9234,VALID,28,VALID,0,
2008-05-10, 02:50:00,VALID,916.401,VALID,0,VALID,100,VALID,-0.0509425,VALID,19.9364,VALID,28,VALID,0,
2008-05-10, 02:51:00,VALID,916.387,VALID,0,VALID,100,VALID,-0.0849042,VALID,19.9329,VALID,28,VALID,0,
2008-05-10, 02:52:00,VALID,916.376,VALID,0,VALID,100,VALID,-0.101885,VALID,19.9367,VALID,28,VALID,0,
2008-05-10, 02:53:00,VALID,916.394,VALID,0,VALID,100,VALID,0.0509425,VALID,19.9511,VALID,28,VALID,0.0292515,
2008-05-10, 02:54:00,VALID,916.404,VALID,0,VALID,100,VALID,0,VALID,19.9486,VALID,28,VALID,0,
2008-05-10, 02:55:00,VALID,916.41,VALID,0,VALID,100,VALID,0,VALID,19.9454,VALID,28,VALID,0,
2008-05-10, 02:56:00,VALID,916.437,VALID,0,VALID,100,VALID,0.0169808,VALID,19.9224,VALID,28,VALID,0.491642,
2008-05-10, 02:57:00,VALID,916.435,VALID,0,VALID,100,VALID,0,VALID,19.9257,VALID,31,VALID,0.105741,
2008-05-10, 02:58:00,VALID,916.44,VALID,0,VALID,100,VALID,0.0169808,VALID,19.9322,VALID,33,VALID,0.327955,
2008-05-10, 02:59:00,VALID,916.45,VALID,0,VALID,100,VALID,0.0509425,VALID,19.9416,VALID,32,VALID,0,
2008-05-10, 03:00:00,VALID,916.417,VALID,0,VALID,100,VALID,0,VALID,19.9479,VALID,32,VALID,0,
2008-05-10, 03:01:00,VALID,916.471,VALID,0,VALID,100,VALID,0,VALID,19.9581,VALID,32,VALID,0,
2008-05-10, 03:02:00,VALID,916.476,VALID,0,VALID,100,VALID,0.0339617,VALID,19.9486,VALID,32,VALID,0,
2008-05-10, 03:03:00,VALID,916.499,VALID,0,VALID,100,VALID,0.0339617,VALID,19.9287,VALID,32,VALID,0,
2008-05-10, 03:04:00,VALID,916.509,VALID,0,VALID,100,VALID,0,VALID,19.9614,VALID,32,VALID,0,
2008-05-10, 03:05:00,VALID,916.51,VALID,0,VALID,100,VALID,0.0169808,VALID,19.9803,VALID,32,VALID,0,
2008-05-10, 03:06:00,VALID,916.51,VALID,0,VALID,100,VALID,0,VALID,19.9838,VALID,32,VALID,0,
2008-05-10, 03:07:00,VALID,916.529,VALID,0,VALID,100,VALID,0.0169808,VALID,19.9838,VALID,31,VALID,0,
2008-05-10, 03:08:00,VALID,916.526,VALID,0,VALID,100,VALID,-0.0679233,VALID,19.9988,VALID,30,VALID,0,
2008-05-10, 03:09:00,VALID,916.51,VALID,0,VALID,100,VALID,-0.0339617,VALID,20.0113,VALID,30,VALID,0,
2008-05-10, 03:10:00,VALID,916.495,VALID,0,VALID,100,VALID,-0.0169808,VALID,20.0043,VALID,30,VALID,0,
2008-05-10, 03:11:00,VALID,916.461,VALID,0,VALID,100,VALID,-0.0509425,VALID,20.0178,VALID,30,VALID,0,
2008-05-10, 03:12:00,VALID,916.426,VALID,0,VALID,100,VALID,-0.0339617,VALID,20.0178,VALID,29,VALID,0,
2008-05-10, 03:13:00,VALID,916.38,VALID,0,VALID,100,VALID,-0.0339617,VALID,19.9816,VALID,23,VALID,1.13839,
2008-05-10, 03:14:00,VALID,916.358,VALID,0,VALID,100,VALID,-0.0169808,VALID,19.9691,VALID,32,VALID,1.4484,
2008-05-10, 03:15:00,VALID,916.366,VALID,0,VALID,100,VALID,-0.0679233,VALID,19.9626,VALID,35,VALID,0.78418,
2008-05-10, 03:16:00,VALID,916.36,VALID,0,VALID,100,VALID,-0.0169808,VALID,19.9624,VALID,28,VALID,0.015439,
2008-05-10, 03:17:00,VALID,916.342,VALID,0,VALID,100,VALID,-0.0339617,VALID,19.9561,VALID,25,VALID,0.415968,
2008-05-10, 03:18:00,VALID,916.317,VALID,0,VALID,100,VALID,-0.0509425,VALID,19.9137,VALID,24,VALID,0.899966,
2008-05-10, 03:19:00,VALID,916.29,VALID,0,VALID,100,VALID,-0.0339617,VALID,19.9072,VALID,24,VALID,1.23791,
2008-05-10, 03:20:00,VALID,916.248,VALID,0,VALID,100,VALID,-0.0509425,VALID,19.9012,VALID,24,VALID,1.53926,
2008-05-10, 03:21:00,VALID,916.261,VALID,0,VALID,100,VALID,-0.0339617,VALID,19.8715,VALID,28,VALID,1.14277,
2008-05-10, 03:22:00,VALID,916.268,VALID,0,VALID,100,VALID,-0.101885,VALID,19.872,VALID,9,VALID,0.127663,
2008-05-10, 03:23:00,VALID,916.284,VALID,0,VALID,100,VALID,0.0509425,VALID,19.8673,VALID,218,VALID,0.889881,
2008-05-10, 03:24:00,VALID,916.3,VALID,0,VALID,100,VALID,0.0509425,VALID,19.864,VALID,199,VALID,1.03979,
2008-05-10, 03:25:00,VALID,916.294,VALID,0,VALID,100,VALID,0.0339617,VALID,19.8608,VALID,215,VALID,0.684524,
2008-05-10, 03:26:00,VALID,916.271,VALID,0,VALID,100,VALID,0.0509425,VALID,19.864,VALID,228,VALID,0.00390625,
2008-05-10, 03:27:00,VALID,916.265,VALID,0,VALID,100,VALID,0.0849042,VALID,19.8373,VALID,228,VALID,0,
2008-05-10, 03:28:00,VALID,916.253,VALID,0,VALID,100,VALID,0.101885,VALID,19.8471,VALID,229,VALID,0,
2008-05-10, 03:29:00,VALID,916.253,VALID,0,VALID,100,VALID,0.0849042,VALID,19.8341,VALID,230,VALID,0,
2008-05-10, 03:30:00,VALID,916.254,VALID,0,VALID,100,VALID,0.0849042,VALID,19.8343,VALID,231,VALID,0,
2008-05-10, 03:31:00,VALID,916.236,VALID,0,VALID,100,VALID,0.0849042,VALID,19.8213,VALID,231,VALID,0,
2008-05-10, 03:32:00,VALID,916.219,VALID,0,VALID,100,VALID,0.0509425,VALID,19.8346,VALID,231,VALID,0,
2008-05-10, 03:33:00,VALID,916.21,VALID,0,VALID,100,VALID,0.0509425,VALID,19.8441,VALID,231,VALID,0,
2008-05-10, 03:34:00,VALID,916.187,VALID,0,VALID,100,VALID,0.0679233,VALID,19.8443,VALID,231,VALID,0,
2008-05-10, 03:35:00,VALID,916.153,VALID,0,VALID,100,VALID,0.0169808,VALID,19.8476,VALID,334,VALID,0.683503,
2008-05-10, 03:36:00,VALID,916.139,VALID,0,VALID,100,VALID,0.0339617,VALID,19.8186,VALID,20,VALID,1.16548,
2008-05-10, 03:37:00,VALID,916.125,VALID,0,VALID,100,VALID,0.0339617,VALID,19.7627,VALID,18,VALID,1.34139,
2008-05-10, 03:38:00,VALID,916.125,VALID,0,VALID,100,VALID,-0.0679233,VALID,19.7325,VALID,16,VALID,1.19149,
2008-05-10, 03:39:00,VALID,916.122,VALID,0,VALID,100,VALID,-0.0849042,VALID,19.6966,VALID,12,VALID,1.08718,
2008-05-10, 03:40:00,VALID,916.12,VALID,0,VALID,100,VALID,-0.0339617,VALID,19.6808,VALID,4,VALID,0.0703125,
2008-05-10, 03:41:00,VALID,916.117,VALID,0,VALID,100,VALID,-0.0679233,VALID,19.6644,VALID,4,VALID,0,
2008-05-10, 03:42:00,VALID,916.116,VALID,0,VALID,100,VALID,-0.0849042,VALID,19.6544,VALID,20,VALID,0.552973,
2008-05-10, 03:43:00,VALID,916.123,VALID,0,VALID,100,VALID,-0.0169808,VALID,19.6249,VALID,25,VALID,0,
2008-05-10, 03:44:00,VALID,916.125,VALID,0,VALID,100,VALID,-0.0339617,VALID,19.6154,VALID,4,VALID,0.333394,
2008-05-10, 03:45:00,VALID,916.146,VALID,0,VALID,100,VALID,-0.0509425,VALID,19.5957,VALID,339,VALID,0.575267,
2008-05-10, 03:46:00,VALID,916.16,VALID,0,VALID,100,VALID,-0.0169808,VALID,19.596,VALID,10,VALID,0.461664,
2008-05-10, 03:47:00,VALID,916.172,VALID,0,VALID,100,VALID,-0.0849042,VALID,19.5925,VALID,10,VALID,0.875,